COSMOS 1723

Satellite information

Favourite Embed

Satellite Type and Status

PAYLOADIN ORBIT

Key statistics

Satellite COSMOS 1723 at a glance.

Uptime

14366

Days in orbit

Revolutions

≈ 12.6

Per day

Orbit

LEO

Low Earth Orbit

Inclination

74.0

Latest

Satellite identification and parameters

Extended collection of information and parameters for COSMOS 1723.

Object identification

Identified? True

Debris? False

Object name: COSMOS 1723

International designator: 1986-002H

Object number (NORAD): 16456

Object ID (CCSDS): 16456

Country: COMMONWEALTH OF INDEPENDENT STATES (CIS)

Current information (Y/N): Y

RCS size: MEDIUM

Orbital parameters

Period: 114.668 minutes

Inclination: 73.9886 deg

SMA: 7818.479 km

Apoapsis: 1481.646 km

Periapsis: 1399.043 km

RAAN: 256.1586 deg

Eccentricy: 0.0052826

Argument of periapsis: 305.4621 deg

Mean anomaly: 168.9996 deg

Mean motion: 12.55796627 rev/day

Mean motion (dot): -0.00000026 rev/day2

B* drag term: -0.000055287 1/REarth

Two-line elements (TLE)

Creation date: May 10, 2025, 2:32 a.m.

Reference frame: TEME

Reference center: EARTH

Epoch: May 9, 2025, 7:40 p.m. UTC

TLE line 0: 0 COSMOS 1723

TLE line 1: 1 16456U 86002H 25129.82012404 -.00000026 00000-0 -55287-4 0 9999

TLE line 2: 2 16456 73.9886 256.1586 0052826 305.4621 168.9996 12.55796627803001

Live tracking on map

Real-time ground track for satellite COSMOS 1723.

In-orbit conjunctions

A list of the most updated potential collisions computed for object COSMOS 1723.

Target Orbit TCA Probability of collision Miss distance Type
COSMOS 736 LEO 2024-09-22 22:59:34 0.0001715331 117.0 (m) PAYLOAD
COSMOS 734 LEO 2024-06-22 08:44:40 0.0001330661 165.0 (m) PAYLOAD

Associated space launch

Military communications satellites

COSMOS 1723 was lifted into orbit during the mission ‘Kosmos-3M | Strela-1M 297-304’, on board a Kosmos-3M space rocket.

The launch took place on Jan. 9, 1986, 2:48 a.m. from 132/2.

For more information about the launch, click the button.

Launch to space Kosmos-3M | Strela-1M 297-304
Kosmos-3M | Strela-1M 297-304

Agency: N/A

Status: Launch Successful

Launch date: Jan. 9, 1986, 2:48 a.m. UTC

Rocket: Kosmos-3M

Launch pad: 132/2

Location: Plesetsk Cosmodrome, Russian Federation

...

Latest news about this satellite

There are no fresh news available about this satellite. Check back as we update our databases every day.


Newsletter sign-up

Weekly statistics, charts and insights to help you stay on top of the space industry.